WA6MHA-15 Weather Reports


time (UTC)temp
C
wind
direction
speed
KPH
gust
KPH
rain 1hr
cm
rain 24hr
cm
rain mn
cm
humidity
%
barometer
mb
20201025135109 14 85 0.0 0.0 0.00 0.00 0.00 97
20201025134307 14 85 0.0 0.0 0.00 0.00 0.00 97
20201025133908 14 85 0.0 0.0 0.00 0.00 0.00 97
20201025133719 15 85 0.0 0.0 0.00 0.00 0.00 97
20201025133514 15 85 0.0 0.0 0.00 0.00 0.00 97
20201025133229 14 85 0.0 0.0 0.00 0.00 0.00 97
20201025133109 14 85 0.0 0.0 0.00 0.00 0.00 97
20201025132704 14 85 0.0 0.0 0.00 0.00 0.00 97
20201025132305 14 85 0.0 0.0 0.00 0.00 0.00 97
20201025131859 14 85 0.0 0.0 0.00 0.00 0.00 97
20201025131609 14 85 0.0 0.0 0.00 0.00 0.00 97
20201025131459 14 85 0.0 0.0 0.00 0.00 0.00 97
20201025131256 14 98 1.6 0.0 0.00 0.00 0.00 97
20201025131057 14 98 1.6 0.0 0.00 0.00 0.00 97
20201025130922 14 45 0.0 0.0 0.00 0.00 0.00 97
20201025130656 14 45 0.0 0.0 0.00 0.00 0.00 97
20201025130305 14 75 1.6 0.0 0.00 0.00 0.00 97
20201025130034 14 133 4.8 0.0 0.00 0.00 0.00 97
20201025125853 14 133 4.8 0.0 0.00 0.00 0.00 97
20201025125454 14 275 0.0 0.0 0.00 0.00 0.00 97
20201025125053 13 275 0.0 0.0 0.00 0.00 0.00 97
20201025124823 13 275 0.0 0.0 0.00 0.00 0.00 97
20201025124651 13 275 0.0 0.0 0.00 0.00 0.00 97
20201025123850 14 275 0.0 0.0 0.00 0.00 0.00 97
20201025123622 14 275 0.0 0.0 0.00 0.00 0.00 97
20201025123446 14 275 0.0 0.0 0.00 0.00 0.00 97
20201025123045 14 275 0.0 0.0 0.00 0.00 0.00 97
20201025122855 14 275 0.0 0.0 0.00 0.00 0.00 97
20201025122647 14 275 0.0 0.0 0.00 0.00 0.00 97
20201025122336 14 275 0.0 0.0 0.00 0.00 0.00 97
20201025122251 14 275 0.0 0.0 0.00 0.00 0.00 97
20201025121842 15 275 0.0 0.0 0.00 0.00 0.00 97
20201025121613 15 275 0.0 0.0 0.00 0.00 0.00 97
20201025121440 15 275 0.0 0.0 0.00 0.00 0.00 97
20201025121213 15 275 0.0 0.0 0.00 0.00 0.00 97
20201025121040 15 275 0.0 0.0 0.00 0.00 0.00 97
20201025115837 15 275 0.0 0.0 0.00 0.00 0.00 97
20201025115641 15 275 0.0 0.0 0.00 0.00 0.00 97
20201025115434 15 275 0.0 0.0 0.00 0.00 0.00 97
20201025115032 15 275 0.0 0.0 0.00 0.00 0.00 97
20201025114230 15 275 0.0 0.0 0.00 0.00 0.00 97
20201025113831 15 275 0.0 0.0 0.00 0.00 0.00 97
20201025113632 15 275 0.0 0.0 0.00 0.00 0.00 97
20201025113427 15 275 0.0 0.0 0.00 0.00 0.00 97
20201025113142 15 275 0.0 0.0 0.00 0.00 0.00 97
20201025113027 15 275 0.0 0.0 0.00 0.00 0.00 97
20201025112909 15 275 0.0 0.0 0.00 0.00 0.00 97
20201025112625 15 275 0.0 0.0 0.00 0.00 0.00 97
20201025112347 15 275 0.0 0.0 0.00 0.00 0.00 97
20201025112226 15 275 0.0 0.0 0.00 0.00 0.00 97
20201025111822 15 275 0.0 0.0 0.00 0.00 0.00 97
20201025111535 15 275 0.0 0.0 0.00 0.00 0.00 97
20201025111435 15 275 0.0 0.0 0.00 0.00 0.00 97
20201025111155 15 275 0.0 0.0 0.00 0.00 0.00 97
20201025111034 15 275 0.0 0.0 0.00 0.00 0.00 97
20201025110826 15 275 0.0 0.0 0.00 0.00 0.00 97
20201025110619 15 275 0.0 0.0 0.00 0.00 0.00 97
20201025110318 15 275 0.0 0.0 0.00 0.00 0.00 97
20201025110218 15 275 0.0 0.0 0.00 0.00 0.00 97
20201025105817 15 26 0.0 0.0 0.00 0.00 0.00 97
20201025105558 15 26 0.0 0.0 0.00 0.00 0.00 97
20201025105416 15 26 0.0 0.0 0.00 0.00 0.00 97
20201025105142 15 52 1.6 0.0 0.00 0.00 0.00 97
20201025105029 15 52 1.6 0.0 0.00 0.00 0.00 97
20201025104345 15 57 1.6 0.0 0.00 0.00 0.00 97
20201025104212 15 57 1.6 0.0 0.00 0.00 0.00 97
20201025103923 15 75 3.2 0.0 0.00 0.00 0.00 97
20201025103810 15 75 3.2 0.0 0.00 0.00 0.00 97
20201025103020 15 53 1.6 0.0 0.00 0.00 0.00 97
20201025102305 15 122 1.6 0.0 0.00 0.00 0.00 97
20201025102207 15 122 1.6 0.0 0.00 0.00 0.00 97
20201025101548 15 163 0.0 0.0 0.00 0.00 0.00 97
20201025101402 15 163 0.0 0.0 0.00 0.00 0.00 97
20201025100838 15 157 0.0 0.0 0.00 0.00 0.00 97
20201025100603 15 157 0.0 0.0 0.00 0.00 0.00 97
20201025095757 15 340 4.8 0.0 0.00 0.00 0.00 97
20201025095526 15 54 0.0 0.0 0.00 0.00 0.00 97
20201025095356 15 54 0.0 0.0 0.00 0.00 0.00 97
20201025095101 14 42 0.0 0.0 0.00 0.00 0.00 97
20201025094957 14 42 0.0 0.0 0.00 0.00 0.00 97
20201025094749 14 68 4.8 0.0 0.00 0.00 0.00 97
20201025094557 14 68 4.8 0.0 0.00 0.00 0.00 97
20201025094159 14 57 0.0 0.0 0.00 0.00 0.00 97
20201025093350 13 57 0.0 0.0 0.00 0.00 0.00 97
20201025093109 14 57 0.0 0.0 0.00 0.00 0.00 97
20201025092951 14 57 0.0 0.0 0.00 0.00 0.00 97
20201025092736 14 57 0.0 0.0 0.00 0.00 0.00 97
20201025092547 14 57 0.0 0.0 0.00 0.00 0.00 97
20201025092148 13 57 0.0 0.0 0.00 0.00 0.00 97
20201025091918 14 57 0.0 0.0 0.00 0.00 0.00 97
20201025091745 14 57 0.0 0.0 0.00 0.00 0.00 97
20201025091626 14 57 0.0 0.0 0.00 0.00 0.00 97
20201025091345 14 57 0.0 0.0 0.00 0.00 0.00 97
20201025091114 14 57 0.0 0.0 0.00 0.00 0.00 97
20201025090944 14 57 0.0 0.0 0.00 0.00 0.00 97
20201025090542 14 57 0.0 0.0 0.00 0.00 0.00 97
20201025090140 15 57 0.0 0.0 0.00 0.00 0.00 97
20201025085744 15 57 0.0 0.0 0.00 0.00 0.00 97
20201025085339 15 57 0.0 0.0 0.00 0.00 0.00 97
20201025084939 15 57 0.0 0.0 0.00 0.00 0.00 97
20201025084724 15 57 0.0 0.0 0.00 0.00 0.00 97
20201025084537 15 57 0.0 0.0 0.00 0.00 0.00 97
20201025083858 15 57 0.0 0.0 0.00 0.00 0.00 97
20201025083733 15 57 0.0 0.0 0.00 0.00 0.00 97
20201025083341 15 57 0.0 0.0 0.00 0.00 0.00 97
20201025083101 15 57 0.0 0.0 0.00 0.00 0.00 97
20201025082930 15 57 0.0 0.0 0.00 0.00 0.00 97
20201025082643 15 57 0.0 0.0 0.00 0.00 0.00 97
20201025082530 15 57 0.0 0.0 0.00 0.00 0.00 97
20201025082132 15 57 0.0 0.0 0.00 0.00 0.00 97
20201025081854 15 57 0.0 0.0 0.00 0.00 0.00 97
20201025081730 15 57 0.0 0.0 0.00 0.00 0.00 97
20201025081328 15 57 0.0 0.0 0.00 0.00 0.00 97
20201025081030 15 57 0.0 0.0 0.00 0.00 0.00 97
20201025080924 15 57 0.0 0.0 0.00 0.00 0.00 97
20201025080741 15 57 0.0 0.0 0.00 0.00 0.00 97
20201025080525 15 57 0.0 0.0 0.00 0.00 0.00 97
20201025075912 15 57 0.0 0.0 0.00 0.00 0.00 97
20201025075721 15 57 0.0 0.0 0.00 0.00 0.00 97
20201025075500 15 57 0.0 0.0 0.00 0.00 0.00 97
20201025075322 15 57 0.0 0.0 0.00 0.00 0.00 97
20201025074918 15 57 0.0 0.0 0.00 0.00 0.00 97
20201025074706 15 57 0.0 0.0 0.00 0.00 0.00 97
20201025074519 15 57 0.0 0.0 0.00 0.00 0.00 97
20201025074116 15 57 0.0 0.0 0.00 0.00 0.00 97
20201025073842 15 57 0.0 0.0 0.00 0.00 0.00 97
20201025073715 15 57 0.0 0.0 0.00 0.00 0.00 97
20201025073317 15 57 0.0 0.0 0.00 0.00 0.00 97
20201025073040 15 57 0.0 0.0 0.00 0.00 0.00 97
20201025072918 15 57 0.0 0.0 0.00 0.00 0.00 97
20201025072512 15 57 0.0 0.0 0.00 0.00 0.00 97
20201025072305 15 57 0.0 0.0 0.00 0.00 0.00 97
20201025072110 15 57 0.0 0.0 0.00 0.00 0.00 97
20201025071903 15 57 0.0 0.0 0.00 0.00 0.00 97
20201025071708 15 57 0.0 0.0 0.00 0.00 0.00 97
20201025071310 15 54 0.0 0.0 0.00 0.00 0.00 97
20201025070908 15 54 0.0 0.0 0.00 0.00 0.00 97
20201025070649 15 54 0.0 0.0 0.00 0.00 0.00 97
20201025070523 15 54 0.0 0.0 0.00 0.00 0.00 97
20201025070111 15 54 0.0 0.0 0.00 0.00 0.00 97
20201025065705 15 54 0.0 0.0 0.00 0.00 0.00 97
20201025065305 15 54 0.0 0.0 0.00 0.00 0.00 97
20201025064900 15 54 0.0 0.0 0.00 0.00 0.00 97
20201025064500 15 54 0.0 0.0 0.00 0.00 0.00 97
20201025063658 15 42 1.6 0.0 0.00 0.00 0.00 97
20201025063255 15 68 0.0 0.0 0.00 0.00 0.00 97
20201025062853 15 68 0.0 0.0 0.00 0.00 0.00 97
20201025062655 15 68 0.0 0.0 0.00 0.00 0.00 97
20201025062452 15 68 0.0 0.0 0.00 0.00 0.00 97
20201025061650 15 143 0.0 0.0 0.00 0.00 0.00 97
20201025061250 15 143 0.0 0.0 0.00 0.00 0.00 97
20201025060851 15 143 0.0 0.0 0.00 0.00 0.00 97
20201025060446 15 143 0.0 0.0 0.00 0.00 0.00 97
20201025055645 15 143 0.0 0.0 0.00 0.00 0.00 97
20201025054841 15 143 0.0 0.0 0.00 0.00 0.00 97
20201025054440 15 143 0.0 0.0 0.00 0.00 0.00 97
20201025054039 15 143 0.0 0.0 0.00 0.00 0.00 97
20201025053638 15 143 0.0 0.0 0.00 0.00 0.00 97
20201025053237 15 143 0.0 0.0 0.00 0.00 0.00 97
20201025052837 15 143 0.0 0.0 0.00 0.00 0.00 97
20201025052435 15 156 1.6 0.0 0.00 0.00 0.00 97
20201025052034 15 147 4.8 0.0 0.00 0.00 0.00 97
20201025051634 15 232 0.0 0.0 0.00 0.00 0.00 97
20201025050829 15 168 4.8 0.0 0.00 0.00 0.00 97
20201025050428 15 147 0.0 0.0 0.00 0.00 0.00 97
20201025050036 15 147 0.0 0.0 0.00 0.00 0.00 97
20201025045846 15 147 0.0 0.0 0.00 0.00 0.00 97
20201025045626 15 147 0.0 0.0 0.00 0.00 0.00 97
20201025045224 15 220 1.6 0.0 0.00 0.00 0.00 97
20201025044824 15 203 1.6 0.0 0.00 0.00 0.00 97
20201025044421 16 165 3.2 0.0 0.00 0.00 0.00 97
20201025044027 16 130 0.0 0.0 0.00 0.00 0.00 97
20201025043619 16 130 0.0 0.0 0.00 0.00 0.00 97
20201025043223 16 135 1.6 0.0 0.00 0.00 0.00 97
20201025042817 16 147 1.6 0.0 0.00 0.00 0.00 97
20201025042416 16 146 3.2 0.0 0.00 0.00 0.00 97
20201025042020 16 132 1.6 0.0 0.00 0.00 0.00 97
20201025041613 16 202 3.2 0.0 0.00 0.00 0.00 97
20201025041213 16 165 3.2 0.0 0.00 0.00 0.00 97
20201025040412 16 244 3.2 0.0 0.00 0.00 0.00 97
20201025040020 16 206 1.6 0.0 0.00 0.00 0.00 97
20201025035606 16 246 0.0 0.0 0.00 0.00 0.00 97
20201025035208 16 241 0.0 0.0 0.00 0.00 0.00 97
20201025034804 16 260 0.0 0.0 0.00 0.00 0.00 97
20201025034406 16 167 0.0 0.0 0.00 0.00 0.00 97
20201025034007 16 217 3.2 0.0 0.00 0.00 0.00 97
20201025033600 16 181 1.6 0.0 0.00 0.00 0.00 97
20201025033211 16 147 3.2 0.0 0.00 0.00 0.00 97
20201025033052 16 136 1.6 0.0 0.00 0.00 0.00 97
20201025032800 16 136 1.6 0.0 0.00 0.00 0.00 97
20201025032357 16 130 0.0 0.0 0.00 0.00 0.00 97
20201025031958 16 174 1.6 0.0 0.00 0.00 0.00 97
20201025031554 16 250 1.6 0.0 0.00 0.00 0.00 97
20201025031154 16 234 1.6 0.0 0.00 0.00 0.00 97
20201025030351 16 225 1.6 0.0 0.00 0.00 0.00 97
20201025025949 16 182 1.6 0.0 0.00 0.00 0.00 97
20201025025148 16 201 1.6 0.0 0.00 0.00 0.00 97
20201025024749 16 174 1.6 0.0 0.00 0.00 0.00 97
20201025024350 16 208 6.4 0.0 0.00 0.00 0.00 97
20201025023942 16 188 0.0 0.0 0.00 0.00 0.00 97
20201025023542 16 130 1.6 0.0 0.00 0.00 0.00 97
20201025023142 16 160 3.2 0.0 0.00 0.00 0.00 97
20201025022739 16 230 1.6 0.0 0.00 0.00 0.00 97
20201025021936 16 213 0.0 0.0 0.00 0.00 0.00 97
20201025021535 16 171 0.0 0.0 0.00 0.00 0.00 97
20201025021135 16 205 0.0 0.0 0.00 0.00 0.00 97
20201025020734 16 244 4.8 0.0 0.00 0.00 0.00 97
20201025020332 16 181 3.2 0.0 0.00 0.00 0.00 97
20201025015936 16 177 1.6 0.0 0.00 0.00 0.00 97
20201025015529 16 116 0.0 0.0 0.00 0.00 0.00 97
20201025015130 16 182 1.6 0.0 0.00 0.00 0.00 97
20201025014726 16 203 1.6 0.0 0.00 0.00 0.00 97
20201025014326 16 250 6.4 0.0 0.00 0.00 0.00 97
20201025013927 16 227 1.6 0.0 0.00 0.00 0.00 97
20201025013121 17 125 1.6 0.0 0.00 0.00 0.00 97
20201025012720 17 192 3.2 0.0 0.00 0.00 0.00 97
20201025012319 17 39 0.0 0.0 0.00 0.00 0.00 97
20201025011917 17 261 0.0 0.0 0.00 0.00 0.00 97
20201025011517 17 292 0.0 0.0 0.00 0.00 0.00 97
20201025011117 17 292 0.0 0.0 0.00 0.00 0.00 97
20201025010714 17 352 0.0 0.0 0.00 0.00 0.00 97
20201025005109 17 199 0.0 0.0 0.00 0.00 0.00 97
20201025004708 17 143 0.0 0.0 0.00 0.00 0.00 97
20201025004306 17 300 0.0 0.0 0.00 0.00 0.00 97
20201025003911 18 71 3.2 0.0 0.00 0.00 0.00 97
20201025003509 18 303 1.6 0.0 0.00 0.00 0.00 97
20201025003102 18 171 0.0 0.0 0.00 0.00 0.00 97
20201025002701 18 317 0.0 0.0 0.00 0.00 0.00 97
20201025002301 18 154 1.6 0.0 0.00 0.00 0.00 97
20201025001905 17 233 6.4 0.0 0.00 0.00 0.00 97
20201025001459 18 180 8.0 0.0 0.00 0.00 0.00 97
20201025001056 18 151 8.0 0.0 0.00 0.00 0.00 97
20201025000655 18 257 3.2 0.0 0.00 0.00 0.00 97
20201025000254 18 7 1.6 0.0 0.00 0.00 0.00 97
20201024235853 18 291 1.6 0.0 0.00 0.00 0.00 97
20201024235453 18 133 6.4 0.0 0.00 0.00 0.00 97
20201024235051 18 154 1.6 0.0 0.00 0.00 0.00 97
20201024234648 18 191 6.4 0.0 0.00 0.00 0.00 97
20201024234250 18 286 1.6 0.0 0.00 0.00 0.00 97
20201024233846 18 140 0.0 0.0 0.00 0.00 0.00 97
20201024233446 18 199 3.2 0.0 0.00 0.00 0.00 97
20201024233044 18 241 3.2 0.0 0.00 0.00 0.00 97
20201024232642 18 234 4.8 0.0 0.00 0.00 0.00 97
20201024232242 18 257 6.4 0.0 0.00 0.00 0.00 97
20201024231840 18 167 4.8 0.0 0.00 0.00 0.00 97
20201024231439 18 253 11.3 0.0 0.00 0.00 0.00 97
20201024231038 18 329 4.8 0.0 0.00 0.00 0.00 97
20201024230639 18 36 0.0 0.0 0.00 0.00 0.00 97
20201024230236 18 181 4.8 0.0 0.00 0.00 0.00 97
20201024225836 18 194 3.2 0.0 0.00 0.00 0.00 97
20201024225434 18 288 3.2 0.0 0.00 0.00 0.00 97
20201024225031 18 42 0.0 0.0 0.00 0.00 0.00 97
20201024224633 18 174 3.2 0.0 0.00 0.00 0.00 97
20201024224231 18 277 4.8 0.0 0.00 0.00 0.00 97
20201024223828 18 306 6.4 0.0 0.00 0.00 0.00 97
20201024223429 18 336 6.4 0.0 0.00 0.00 0.00 97
20201024222623 18 52 0.0 0.0 0.00 0.00 0.00 97
20201024222227 18 330 3.2 0.0 0.00 0.00 0.00 97
20201024221825 18 305 1.6 0.0 0.00 0.00 0.00 97
20201024221420 18 185 3.2 0.0 0.00 0.00 0.00 97
20201024221021 18 25 0.0 0.0 0.00 0.00 0.00 97
20201024220618 18 322 1.6 0.0 0.00 0.00 0.00 97
20201024215815 18 184 0.0 0.0 0.00 0.00 0.00 97
20201024215413 18 319 4.8 0.0 0.00 0.00 0.00 97
20201024215021 18 303 8.0 0.0 0.00 0.00 0.00 97
20201024214610 18 300 6.4 0.0 0.00 0.00 0.00 97
20201024214210 18 237 4.8 0.0 0.00 0.00 0.00 97
20201024213808 18 4 0.0 0.0 0.00 0.00 0.00 97
20201024213409 18 337 1.6 0.0 0.00 0.00 0.00 97
20201024213020 18 75 3.2 0.0 0.00 0.00 0.00 97
20201024212205 18 296 4.8 0.0 0.00 0.00 0.00 97
20201024211807 18 296 1.6 0.0 0.00 0.00 0.00 97
20201024211400 18 315 6.4 0.0 0.00 0.00 0.00 97
20201024211000 18 303 1.6 0.0 0.00 0.00 0.00 97
20201024210158 18 330 0.0 0.0 0.00 0.00 0.00 97
20201024205800 18 171 1.6 0.0 0.00 0.00 0.00 97
20201024205354 18 205 0.0 0.0 0.00 0.00 0.00 97
20201024204552 19 291 3.2 0.0 0.00 0.00 0.00 97
20201024204151 19 324 8.0 0.0 0.00 0.00 0.00 97
20201024203749 19 350 4.8 0.0 0.00 0.00 0.00 97
20201024203357 19 154 4.8 0.0 0.00 0.00 0.00 97
20201024202948 19 323 0.0 0.0 0.00 0.00 0.00 97
20201024202145 18 225 6.4 0.0 0.00 0.00 0.00 97
20201024201746 18 298 4.8 0.0 0.00 0.00 0.00 97
20201024201345 18 341 0.0 0.0 0.00 0.00 0.00 97
20201024200942 18 341 1.6 0.0 0.00 0.00 0.00 97
20201024200540 18 99 0.0 0.0 0.00 0.00 0.00 97
20201024200139 18 233 0.0 0.0 0.00 0.00 0.00 97
20201024195736 18 175 0.0 0.0 0.00 0.00 0.00 97
20201024195339 18 244 0.0 0.0 0.00 0.00 0.00 97
20201024194937 18 274 3.2 0.0 0.00 0.00 0.00 97
20201024194533 18 336 6.4 0.0 0.00 0.00 0.00 97
20201024194133 18 268 3.2 0.0 0.00 0.00 0.00 97
20201024193329 18 341 3.2 0.0 0.00 0.00 0.00 97
20201024192930 18 302 6.4 0.0 0.00 0.00 0.00 97
20201024192528 18 1 1.6 0.0 0.00 0.00 0.00 97
20201024192125 18 282 4.8 0.0 0.00 0.00 0.00 97
20201024191725 18 309 0.0 0.0 0.00 0.00 0.00 97
20201024191323 18 267 4.8 0.0 0.00 0.00 0.00 97
20201024190923 18 302 6.4 0.0 0.00 0.00 0.00 97
20201024190119 18 319 1.6 0.0 0.00 0.00 0.00 97
20201024185718 18 329 8.0 0.0 0.00 0.00 0.00 97
20201024185325 18 275 4.8 0.0 0.00 0.00 0.00 97
20201024184916 18 289 6.4 0.0 0.00 0.00 0.00 97
20201024184122 18 341 0.0 0.0 0.00 0.00 0.00 97
20201024183711 18 254 1.6 0.0 0.00 0.00 0.00 97
20201024183311 18 329 1.6 0.0 0.00 0.00 0.00 97
20201024182915 18 313 4.8 0.0 0.00 0.00 0.00 97
20201024182112 18 341 4.8 0.0 0.00 0.00 0.00 97
20201024181705 18 300 4.8 0.0 0.00 0.00 0.00 97
20201024181304 18 292 8.0 0.0 0.00 0.00 0.00 97
20201024180903 18 260 4.8 0.0 0.00 0.00 0.00 97
20201024180105 18 315 3.2 0.0 0.00 0.00 0.00 97
20201024175305 17 350 0.0 0.0 0.00 0.00 0.00 97
20201024174857 17 296 6.4 0.0 0.00 0.00 0.00 97
20201024174459 17 326 0.0 0.0 0.00 0.00 0.00 97
20201024174055 17 184 0.0 0.0 0.00 0.00 0.00 97
20201024173656 17 291 1.6 0.0 0.00 0.00 0.00 97
20201024173252 17 307 1.6 0.0 0.00 0.00 0.00 97
20201024172850 17 258 1.6 0.0 0.00 0.00 0.00 97
20201024172450 17 293 0.0 0.0 0.00 0.00 0.00 97
20201024172051 17 293 0.0 0.0 0.00 0.00 0.00 97
20201024171646 17 305 1.6 0.0 0.00 0.00 0.00 97
20201024171246 17 319 1.6 0.0 0.00 0.00 0.00 97
20201024170844 17 247 0.0 0.0 0.00 0.00 0.00 97
20201024170442 17 247 1.6 0.0 0.00 0.00 0.00 97
20201024170043 17 281 3.2 0.0 0.00 0.00 0.00 97
20201024165640 17 12 0.0 0.0 0.00 0.00 0.00 97
20201024165244 17 302 4.8 0.0 0.00 0.00 0.00 97
20201024164838 17 309 4.8 0.0 0.00 0.00 0.00 97
20201024164538 17 323 3.2 0.0 0.00 0.00 0.00 97
20201024164437 17 323 3.2 0.0 0.00 0.00 0.00 97
20201024164038 17 291 4.8 0.0 0.00 0.00 0.00 97
20201024163634 17 240 0.0 0.0 0.00 0.00 0.00 97
20201024163233 17 309 3.2 0.0 0.00 0.00 0.00 97
20201024162831 17 271 3.2 0.0 0.00 0.00 0.00 97
20201024162435 16 341 0.0 0.0 0.00 0.00 0.00 97
20201024162041 16 309 0.0 0.0 0.00 0.00 0.00 97
20201024161627 16 305 1.6 0.0 0.00 0.00 0.00 97
20201024161229 16 305 0.0 0.0 0.00 0.00 0.00 97
20201024160825 16 305 0.0 0.0 0.00 0.00 0.00 97
20201024160427 16 305 0.0 0.0 0.00 0.00 0.00 97
20201024160024 16 351 3.2 0.0 0.00 0.00 0.00 97
20201024155224 16 312 3.2 0.0 0.00 0.00 0.00 97
20201024154421 16 4 0.0 0.0 0.00 0.00 0.00 97
20201024153616 16 22 0.0 0.0 0.00 0.00 0.00 97
20201024152814 16 331 0.0 0.0 0.00 0.00 0.00 97
20201024152010 16 258 0.0 0.0 0.00 0.00 0.00 97
20201024151617 16 310 0.0 0.0 0.00 0.00 0.00 97
20201024151321 16 310 0.0 0.0 0.00 0.00 0.00 97
20201024150808 16 310 0.0 0.0 0.00 0.00 0.00 97
20201024150406 16 310 0.0 0.0 0.00 0.00 0.00 97
20201024150019 16 310 0.0 0.0 0.00 0.00 0.00 97
20201024145201 16 310 0.0 0.0 0.00 0.00 0.00 97
20201024144801 16 310 0.0 0.0 0.00 0.00 0.00 97
20201024144400 16 310 0.0 0.0 0.00 0.00 0.00 97
20201024143958 16 310 0.0 0.0 0.00 0.00 0.00 97
20201024143557 16 310 0.0 0.0 0.00 0.00 0.00 97
20201024143156 16 310 0.0 0.0 0.00 0.00 0.00 97
20201024142757 16 310 0.0 0.0 0.00 0.00 0.00 97
20201024142355 16 317 4.8 0.0 0.00 0.00 0.00 97
20201024141953 16 178 0.0 0.0 0.00 0.00 0.00 97
20201024141552 16 336 1.6 0.0 0.00 0.00 0.00 97
20201024141149 16 292 0.0 0.0 0.00 0.00 0.00 97
20201024140752 16 292 0.0 0.0 0.00 0.00 0.00 97
20201024135544 16 30 0.0 0.0 0.00 0.00 0.00 97